Location: Peebles
(55.6412°N, 3.1714°W)
Time: 11:36:15
(UTC+00:00)

RS-15 - Pass Details

Date: 05 December 2023
Orbit: 1893 x 2151 km, 64.8° (Epoch: 02 March)

Event Time Altitude Azimuth Distance (km) Brightness Sun altitude
Exits shadow 00:30:46 28° 54° (NE) 3,201 9.2 -56.3°
Drops below altitude 10° 00:35:21 10° 66° (ENE) 4,398 10.1 -56.1°
Sets 00:38:43 0° 71° (ENE) 5,368 10.6 -56.0°
